| time (UTC) | temp C | wind direction | speed KPH | gust KPH | rain 1hr cm | rain 24hr cm | rain mn cm | humidity % | barometer mb |
| 20260503184101 | 22 | 221 | 6.4 | 17.7 | 0.00 | 0.00 | 0.00 | 19 | 1021.1 |
| 20260503183608 | 22 | 189 | 6.4 | 22.5 | 0.00 | 0.00 | 0.00 | 18 | 1021.1 |
| 20260503183007 | 22 | 127 | 8.0 | 19.3 | 0.00 | 0.00 | 0.00 | 20 | 1021.2 |
| 20260503182603 | 22 | 112 | 3.2 | 16.1 | 0.00 | 0.00 | 0.00 | 20 | 1021.3 |
| 20260503182005 | 22 | 211 | 11.3 | 16.1 | 0.00 | 0.00 | 0.00 | 20 | 1021.4 |
| 20260503181603 | 22 | 173 | 1.6 | 14.5 | 0.00 | 0.00 | 0.00 | 20 | 1021.5 |
| 20260503181106 | 21 | 209 | 3.2 | 16.1 | 0.00 | 0.00 | 0.00 | 20 | 1021.6 |
| 20260503180512 | 21 | 110 | 6.4 | 19.3 | 0.00 | 0.00 | 0.00 | 20 | 1021.7 |
| 20260503180008 | 21 | 211 | 6.4 | 19.3 | 0.00 | 0.00 | 0.00 | 20 | 1021.7 |
| 20260503175602 | 21 | 55 | 4.8 | 17.7 | 0.00 | 0.00 | 0.00 | 21 | 1021.7 |
| 20260503175006 | 21 | 159 | 8.0 | 14.5 | 0.00 | 0.00 | 0.00 | 22 | 1021.8 |
| 20260503174601 | 21 | 105 | 6.4 | 19.3 | 0.00 | 0.00 | 0.00 | 23 | 1021.9 |
| 20260503174006 | 20 | 141 | 11.3 | 20.9 | 0.00 | 0.00 | 0.00 | 23 | 1021.8 |
| 20260503173559 | 20 | 110 | 3.2 | 16.1 | 0.00 | 0.00 | 0.00 | 25 | 1022.0 |
| 20260503173114 | 20 | 102 | 8.0 | 16.1 | 0.00 | 0.00 | 0.00 | 26 | 1022.1 |
| 20260503172507 | 20 | 200 | 6.4 | 17.7 | 0.00 | 0.00 | 0.00 | 25 | 1022.2 |
| 20260503172105 | 20 | 143 | 8.0 | 17.7 | 0.00 | 0.00 | 0.00 | 27 | 1022.2 |
| 20260503171506 | 19 | 93 | 6.4 | 17.7 | 0.00 | 0.00 | 0.00 | 27 | 1022.2 |
| 20260503171014 | 19 | 38 | 9.7 | 17.7 | 0.00 | 0.00 | 0.00 | 27 | 1022.3 |
| 20260503170518 | 19 | 113 | 6.4 | 16.1 | 0.00 | 0.00 | 0.00 | 28 | 1022.4 |
| 20260503160113 | 16 | 119 | 11.3 | 19.3 | 0.00 | 0.00 | 0.00 | 33 | 1022.8 |
| 20260503151009 | 13 | 94 | 9.7 | 19.3 | 0.00 | 0.00 | 0.00 | 37 | 1023.1 |
| 20260503150605 | 13 | 84 | 12.9 | 20.9 | 0.00 | 0.00 | 0.00 | 37 | 1023.1 |
| 20260503131048 | 7 | 68 | 8.0 | 16.1 | 0.00 | 0.00 | 0.00 | 42 | 1022.7 |
| 20260503130556 | 7 | 42 | 6.4 | 16.1 | 0.00 | 0.00 | 0.00 | 41 | 1022.7 |
| 20260503110603 | 6 | 106 | 4.8 | 12.9 | 0.00 | 0.00 | 0.00 | 41 | 1022.5 |
| 20260503081516 | 8 | 113 | 3.2 | 6.4 | 0.00 | 0.00 | 0.00 | 37 | 1022.4 |
| 20260503081015 | 8 | 107 | 4.8 | 6.4 | 0.00 | 0.00 | 0.00 | 38 | 1022.5 |
| 20260503080521 | 8 | 110 | 4.8 | 6.4 | 0.00 | 0.00 | 0.00 | 37 | 1022.5 |
| 20260503072544 | 8 | 98 | 4.8 | 6.4 | 0.00 | 0.00 | 0.00 | 35 | 1022.5 |
| 20260503072050 | 9 | 94 | 4.8 | 6.4 | 0.00 | 0.00 | 0.00 | 34 | 1022.6 |
| 20260503071549 | 9 | 105 | 4.8 | 6.4 | 0.00 | 0.00 | 0.00 | 34 | 1022.5 |
| 20260503071049 | 9 | 103 | 3.2 | 6.4 | 0.00 | 0.00 | 0.00 | 33 | 1022.6 |
| 20260503070555 | 9 | 111 | 3.2 | 9.7 | 0.00 | 0.00 | 0.00 | 33 | 1022.6 |
| 20260503060110 | 11 | 98 | 3.2 | 4.8 | 0.00 | 0.00 | 0.00 | 30 | 1022.2 |
| 20260503055103 | 11 | 90 | 3.2 | 4.8 | 0.00 | 0.00 | 0.00 | 30 | 1022.2 |
| 20260503054506 | 11 | 93 | 3.2 | 4.8 | 0.00 | 0.00 | 0.00 | 30 | 1022.1 |
| 20260503054103 | 11 | 88 | 3.2 | 4.8 | 0.00 | 0.00 | 0.00 | 30 | 1022.0 |
| 20260503053505 | 12 | 108 | 3.2 | 4.8 | 0.00 | 0.00 | 0.00 | 30 | 1022.0 |
| 20260503053101 | 12 | 108 | 3.2 | 4.8 | 0.00 | 0.00 | 0.00 | 30 | 1022.0 |
| 20260503052505 | 12 | 136 | 3.2 | 6.4 | 0.00 | 0.00 | 0.00 | 30 | 1022.0 |
| 20260503052009 | 12 | 146 | 4.8 | 6.4 | 0.00 | 0.00 | 0.00 | 30 | 1021.9 |
| 20260503051616 | 12 | 175 | 1.6 | 6.4 | 0.00 | 0.00 | 0.00 | 30 | 1022.0 |
| 20260503051006 | 12 | 109 | 0.0 | 3.2 | 0.00 | 0.00 | 0.00 | 29 | 1021.9 |
| 20260503050605 | 12 | 109 | 0.0 | 3.2 | 0.00 | 0.00 | 0.00 | 29 | 1021.8 |
| 20260503050053 | 12 | 109 | 0.0 | 3.2 | 0.00 | 0.00 | 0.00 | 28 | 1021.9 |
| 20260503045601 | 12 | 109 | 0.0 | 3.2 | 0.00 | 0.00 | 0.00 | 28 | 1021.9 |
| 20260503045002 | 13 | 109 | 0.0 | 3.2 | 0.00 | 0.00 | 0.00 | 28 | 1021.8 |
| 20260503044513 | 13 | 109 | 0.0 | 1.6 | 0.00 | 0.00 | 0.00 | 28 | 1021.8 |
| 20260503044105 | 13 | 159 | 0.0 | 0.0 | 0.00 | 0.00 | 0.00 | 28 | 1021.9 |
| 20260503043506 | 13 | 159 | 0.0 | 0.0 | 0.00 | 0.00 | 0.00 | 28 | 1021.9 |
| 20260503043105 | 13 | 159 | 0.0 | 0.0 | 0.00 | 0.00 | 0.00 | 28 | 1021.8 |
| 20260503042552 | 13 | 159 | 0.0 | 0.0 | 0.00 | 0.00 | 0.00 | 28 | 1021.8 |
| 20260503042101 | 13 | 159 | 0.0 | 0.0 | 0.00 | 0.00 | 0.00 | 28 | 1021.8 |
| 20260503041502 | 13 | 159 | 0.0 | 0.0 | 0.00 | 0.00 | 0.00 | 28 | 1021.8 |
| 20260503041011 | 13 | 159 | 0.0 | 0.0 | 0.00 | 0.00 | 0.00 | 28 | 1021.8 |
| 20260503040606 | 13 | 159 | 0.0 | 0.0 | 0.00 | 0.00 | 0.00 | 28 | 1021.8 |
| 20260503040008 | 13 | 159 | 0.0 | 0.0 | 0.00 | 0.00 | 0.00 | 28 | 1021.8 |
| 20260503035604 | 13 | 159 | 0.0 | 0.0 | 0.00 | 0.00 | 0.00 | 27 | 1021.8 |
| 20260503035005 | 13 | 159 | 0.0 | 0.0 | 0.00 | 0.00 | 0.00 | 27 | 1021.6 |
| 20260503034512 | 13 | 159 | 0.0 | 0.0 | 0.00 | 0.00 | 0.00 | 27 | 1021.6 |
| 20260503034002 | 13 | 159 | 0.0 | 0.0 | 0.00 | 0.00 | 0.00 | 27 | 1021.6 |
| 20260503033514 | 13 | 159 | 0.0 | 0.0 | 0.00 | 0.00 | 0.00 | 26 | 1021.7 |
| 20260503033001 | 14 | 159 | 0.0 | 0.0 | 0.00 | 0.00 | 0.00 | 26 | 1021.6 |
| 20260503032557 | 14 | 159 | 0.0 | 0.0 | 0.00 | 0.00 | 0.00 | 26 | 1021.5 |
| 20260503032106 | 14 | 159 | 0.0 | 0.0 | 0.00 | 0.00 | 0.00 | 26 | 1021.5 |
| 20260503031556 | 15 | 159 | 0.0 | 0.0 | 0.00 | 0.00 | 0.00 | 25 | 1021.5 |
| 20260503031047 | 15 | 159 | 0.0 | 1.6 | 0.00 | 0.00 | 0.00 | 25 | 1021.5 |
| 20260503030554 | 15 | 159 | 0.0 | 1.6 | 0.00 | 0.00 | 0.00 | 25 | 1021.3 |
| 20260503030105 | 15 | 159 | 0.0 | 1.6 | 0.00 | 0.00 | 0.00 | 25 | 1021.3 |
| 20260503025503 | 15 | 159 | 0.0 | 1.6 | 0.00 | 0.00 | 0.00 | 24 | 1021.3 |
| 20260503025009 | 15 | 159 | 0.0 | 1.6 | 0.00 | 0.00 | 0.00 | 24 | 1021.2 |
| 20260503024524 | 16 | 159 | 0.0 | 3.2 | 0.00 | 0.00 | 0.00 | 24 | 1021.1 |
| 20260503024022 | 16 | 159 | 0.0 | 3.2 | 0.00 | 0.00 | 0.00 | 24 | 1021.2 |
| 20260503023530 | 16 | 159 | 0.0 | 3.2 | 0.00 | 0.00 | 0.00 | 23 | 1021.1 |
| 20260503023038 | 16 | 159 | 0.0 | 3.2 | 0.00 | 0.00 | 0.00 | 23 | 1021.1 |
| 20260503022544 | 17 | 127 | 0.0 | 3.2 | 0.00 | 0.00 | 0.00 | 23 | 1021.1 |
| 20260503022050 | 17 | 127 | 0.0 | 3.2 | 0.00 | 0.00 | 0.00 | 22 | 1021.1 |
| 20260503021602 | 17 | 127 | 0.0 | 3.2 | 0.00 | 0.00 | 0.00 | 22 | 1021.0 |
| 20260503021104 | 17 | 127 | 0.0 | 3.2 | 0.00 | 0.00 | 0.00 | 21 | 1021.0 |
| 20260503020505 | 18 | 127 | 0.0 | 3.2 | 0.00 | 0.00 | 0.00 | 21 | 1020.9 |
| 20260503015506 | 18 | 95 | 0.0 | 3.2 | 0.00 | 0.00 | 0.00 | 20 | 1020.9 |
| 20260503015058 | 18 | 95 | 0.0 | 3.2 | 0.00 | 0.00 | 0.00 | 20 | 1020.9 |
| 20260503014549 | 18 | 95 | 1.6 | 3.2 | 0.00 | 0.00 | 0.00 | 20 | 1020.8 |
| 20260503014057 | 19 | 95 | 0.0 | 6.4 | 0.00 | 0.00 | 0.00 | 19 | 1020.9 |
| 20260503013603 | 19 | 73 | 0.0 | 6.4 | 0.00 | 0.00 | 0.00 | 19 | 1020.9 |
| 20260503013007 | 20 | 87 | 1.6 | 6.4 | 0.00 | 0.00 | 0.00 | 19 | 1020.8 |
| 20260503012511 | 20 | 239 | 0.0 | 3.2 | 0.00 | 0.00 | 0.00 | 19 | 1020.9 |
| 20260503012019 | 20 | 240 | 0.0 | 9.7 | 0.00 | 0.00 | 0.00 | 19 | 1020.9 |
| 20260503011524 | 20 | 209 | 1.6 | 9.7 | 0.00 | 0.00 | 0.00 | 19 | 1020.8 |
| 20260503011032 | 20 | 221 | 1.6 | 3.2 | 0.00 | 0.00 | 0.00 | 19 | 1020.9 |
| 20260503010539 | 20 | 69 | 0.0 | 4.8 | 0.00 | 0.00 | 0.00 | 19 | 1020.9 |
| 20260503010048 | 20 | 69 | 1.6 | 4.8 | 0.00 | 0.00 | 0.00 | 18 | 1020.9 |
| 20260503005537 | 20 | 115 | 1.6 | 6.4 | 0.00 | 0.00 | 0.00 | 18 | 1020.9 |
| 20260503005045 | 20 | 138 | 1.6 | 11.3 | 0.00 | 0.00 | 0.00 | 19 | 1020.9 |
| 20260503004600 | 20 | 96 | 1.6 | 12.9 | 0.00 | 0.00 | 0.00 | 18 | 1021.0 |
| 20260503004058 | 20 | 119 | 1.6 | 6.4 | 0.00 | 0.00 | 0.00 | 18 | 1021.0 |
| 20260503003549 | 20 | 292 | 3.2 | 6.4 | 0.00 | 0.00 | 0.00 | 18 | 1021.0 |
| 20260503003111 | 21 | 287 | 1.6 | 4.8 | 0.00 | 0.00 | 0.00 | 18 | 1021.1 |
| 20260503002549 | 21 | 169 | 0.0 | 6.4 | 0.00 | 0.00 | 0.00 | 18 | 1021.2 |
| 20260503002056 | 21 | 163 | 1.6 | 11.3 | 0.00 | 0.00 | 0.00 | 18 | 1021.2 |
| 20260503001601 | 20 | 143 | 4.8 | 11.3 | 0.00 | 0.00 | 0.00 | 19 | 1021.1 |
| 20260503001038 | 20 | 151 | 1.6 | 9.7 | 0.00 | 0.00 | 0.00 | 18 | 1021.1 |
| 20260503000545 | 20 | 126 | 3.2 | 9.7 | 0.00 | 0.00 | 0.00 | 18 | 1021.1 |
| 20260503000036 | 20 | 165 | 3.2 | 11.3 | 0.00 | 0.00 | 0.00 | 19 | 1021.2 |
| 20260502235543 | 20 | 185 | 6.4 | 11.3 | 0.00 | 0.00 | 0.00 | 19 | 1021.2 |
| 20260502235048 | 20 | 92 | 3.2 | 8.0 | 0.00 | 0.00 | 0.00 | 18 | 1021.2 |
| 20260502234557 | 20 | 134 | 3.2 | 6.4 | 0.00 | 0.00 | 0.00 | 19 | 1021.2 |
| 20260502234048 | 20 | 161 | 0.0 | 11.3 | 0.00 | 0.00 | 0.00 | 20 | 1021.2 |
| 20260502233556 | 20 | 199 | 1.6 | 11.3 | 0.00 | 0.00 | 0.00 | 20 | 1021.3 |
| 20260502233047 | 19 | 194 | 4.8 | 12.9 | 0.00 | 0.00 | 0.00 | 20 | 1021.2 |
| 20260502232555 | 19 | 102 | 1.6 | 12.9 | 0.00 | 0.00 | 0.00 | 20 | 1021.3 |
| 20260502232059 | 20 | 134 | 1.6 | 12.9 | 0.00 | 0.00 | 0.00 | 20 | 1021.3 |
| 20260502231551 | 20 | 178 | 6.4 | 12.9 | 0.00 | 0.00 | 0.00 | 19 | 1021.3 |
| 20260502231059 | 20 | 156 | 4.8 | 11.3 | 0.00 | 0.00 | 0.00 | 21 | 1021.3 |
| 20260502230603 | 20 | 116 | 0.0 | 11.3 | 0.00 | 0.00 | 0.00 | 21 | 1021.4 |
| 20260502230007 | 20 | 167 | 4.8 | 14.5 | 0.00 | 0.00 | 0.00 | 20 | 1021.4 |
| 20260502225604 | 20 | 120 | 6.4 | 14.5 | 0.00 | 0.00 | 0.00 | 21 | 1021.3 |
| 20260502225005 | 20 | 254 | 3.2 | 9.7 | 0.00 | 0.00 | 0.00 | 21 | 1021.3 |
| 20260502224603 | 20 | 156 | 4.8 | 9.7 | 0.00 | 0.00 | 0.00 | 20 | 1021.4 |
| 20260502224002 | 20 | 308 | 3.2 | 12.9 | 0.00 | 0.00 | 0.00 | 20 | 1021.4 |
| 20260502223558 | 20 | 200 | 8.0 | 12.9 | 0.00 | 0.00 | 0.00 | 20 | 1021.4 |
| 20260502223049 | 20 | 186 | 6.4 | 11.3 | 0.00 | 0.00 | 0.00 | 20 | 1021.5 |
| 20260502222557 | 21 | 117 | 6.4 | 16.1 | 0.00 | 0.00 | 0.00 | 20 | 1021.5 |
| 20260502222106 | 20 | 126 | 9.7 | 16.1 | 0.00 | 0.00 | 0.00 | 20 | 1021.6 |
| 20260502221505 | 20 | 121 | 8.0 | 14.5 | 0.00 | 0.00 | 0.00 | 21 | 1021.7 |
| 20260502221102 | 20 | 108 | 6.4 | 19.3 | 0.00 | 0.00 | 0.00 | 20 | 1021.7 |
| 20260502220502 | 21 | 149 | 9.7 | 19.3 | 0.00 | 0.00 | 0.00 | 19 | 1021.7 |
| 20260502220059 | 22 | 175 | 9.7 | 16.1 | 0.00 | 0.00 | 0.00 | 19 | 1021.9 |
| 20260502215606 | 22 | 174 | 4.8 | 11.3 | 0.00 | 0.00 | 0.00 | 19 | 1021.9 |
| 20260502215008 | 21 | 140 | 4.8 | 14.5 | 0.00 | 0.00 | 0.00 | 19 | 1022.0 |
| 20260502214602 | 21 | 163 | 8.0 | 14.5 | 0.00 | 0.00 | 0.00 | 19 | 1022.0 |
| 20260502214009 | 21 | 175 | 9.7 | 16.1 | 0.00 | 0.00 | 0.00 | 19 | 1022.2 |
| 20260502213601 | 21 | 190 | 4.8 | 16.1 | 0.00 | 0.00 | 0.00 | 20 | 1022.4 |
| 20260502213008 | 21 | 168 | 6.4 | 16.1 | 0.00 | 0.00 | 0.00 | 20 | 1022.5 |
| 20260502212604 | 21 | 315 | 3.2 | 16.1 | 0.00 | 0.00 | 0.00 | 20 | 1022.6 |
| 20260502212004 | 21 | 172 | 4.8 | 16.1 | 0.00 | 0.00 | 0.00 | 21 | 1022.6 |
| 20260502211513 | 21 | 355 | 3.2 | 12.9 | 0.00 | 0.00 | 0.00 | 22 | 1022.7 |
| 20260502211105 | 20 | 345 | 4.8 | 12.9 | 0.00 | 0.00 | 0.00 | 22 | 1022.8 |
| 20260502210507 | 20 | 350 | 1.6 | 9.7 | 0.00 | 0.00 | 0.00 | 23 | 1022.9 |
| 20260502205505 | 19 | 59 | 0.0 | 11.3 | 0.00 | 0.00 | 0.00 | 24 | 1022.9 |
| 20260502205100 | 19 | 274 | 3.2 | 11.3 | 0.00 | 0.00 | 0.00 | 25 | 1023.0 |
| 20260502204552 | 18 | 63 | 3.2 | 9.7 | 0.00 | 0.00 | 0.00 | 24 | 1023.0 |
| 20260502204059 | 18 | 87 | 3.2 | 12.9 | 0.00 | 0.00 | 0.00 | 24 | 1023.0 |
| 20260502203549 | 19 | 134 | 3.2 | 16.1 | 0.00 | 0.00 | 0.00 | 23 | 1023.1 |
| 20260502203059 | 20 | 177 | 6.4 | 16.1 | 0.00 | 0.00 | 0.00 | 23 | 1023.1 |
| 20260502202546 | 20 | 165 | 8.0 | 16.1 | 0.00 | 0.00 | 0.00 | 23 | 1023.2 |
| 20260502202037 | 20 | 349 | 4.8 | 17.7 | 0.00 | 0.00 | 0.00 | 24 | 1023.2 |
| 20260502201545 | 20 | 82 | 6.4 | 17.7 | 0.00 | 0.00 | 0.00 | 23 | 1023.2 |
| 20260502201037 | 20 | 154 | 4.8 | 12.9 | 0.00 | 0.00 | 0.00 | 23 | 1023.2 |
| 20260502200544 | 20 | 67 | 1.6 | 9.7 | 0.00 | 0.00 | 0.00 | 23 | 1023.4 |
| 20260502200108 | 20 | 38 | 3.2 | 11.3 | 0.00 | 0.00 | 0.00 | 23 | 1023.3 |
| 20260502195557 | 20 | 68 | 4.8 | 11.3 | 0.00 | 0.00 | 0.00 | 22 | 1023.3 |
| 20260502195048 | 20 | 127 | 3.2 | 9.7 | 0.00 | 0.00 | 0.00 | 23 | 1023.3 |
| 20260502194608 | 20 | 84 | 3.2 | 9.7 | 0.00 | 0.00 | 0.00 | 23 | 1023.4 |
| 20260502194047 | 20 | 264 | 1.6 | 9.7 | 0.00 | 0.00 | 0.00 | 22 | 1023.4 |
| 20260502193555 | 19 | 27 | 1.6 | 19.3 | 0.00 | 0.00 | 0.00 | 25 | 1023.5 |
| 20260502193046 | 20 | 109 | 11.3 | 19.3 | 0.00 | 0.00 | 0.00 | 25 | 1023.6 |
| 20260502192551 | 20 | 124 | 4.8 | 14.5 | 0.00 | 0.00 | 0.00 | 25 | 1023.5 |
| 20260502192058 | 18 | 117 | 1.6 | 8.0 | 0.00 | 0.00 | 0.00 | 27 | 1023.7 |
| 20260502191556 | 18 | 76 | 3.2 | 12.9 | 0.00 | 0.00 | 0.00 | 28 | 1023.7 |
| 20260502191057 | 18 | 79 | 6.4 | 12.9 | 0.00 | 0.00 | 0.00 | 28 | 1023.8 |
| 20260502190548 | 18 | 53 | 3.2 | 16.1 | 0.00 | 0.00 | 0.00 | 28 | 1023.9 |
| 20260502190054 | 18 | 111 | 6.4 | 16.1 | 0.00 | 0.00 | 0.00 | 30 | 1023.9 |
| 20260502185544 | 18 | 90 | 4.8 | 17.7 | 0.00 | 0.00 | 0.00 | 31 | 1024.0 |
| 20260502185035 | 18 | 100 | 6.4 | 17.7 | 0.00 | 0.00 | 0.00 | 30 | 1023.9 |
| 20260502184545 | 18 | 117 | 6.4 | 19.3 | 0.00 | 0.00 | 0.00 | 31 | 1024.1 |